Time,TemperatureF,DewpointF,PressureIn,WindDirection,WindDirectionDegrees,WindSpeedMPH,WindSpeedGustMPH,Humidity,HourlyPrecipIn,Conditions,Clouds,dailyrainin,SoftwareType,DateUTC
2013-07-01 00:01:00,68.0,63.0,29.86,WNW,284,1.0,6.0,84,0.00,,,0.56,,2013-07-01 04:01:00,
2013-07-01 00:11:00,67.0,62.0,29.86,NE,54,0.0,1.0,85,0.00,,,0.56,,2013-07-01 04:11:00,
2013-07-01 00:22:00,67.0,62.0,29.86,NE,54,0.0,1.0,85,0.00,,,0.56,,2013-07-01 04:22:00,
2013-07-01 00:32:00,67.0,62.0,29.86,NE,54,0.0,1.0,85,0.00,,,0.56,,2013-07-01 04:32:00,
2013-07-01 00:43:00,67.0,62.0,29.86,NE,54,0.0,1.0,85,0.00,,,0.56,,2013-07-01 04:43:00,
2013-07-01 01:02:00,67.0,62.0,29.87,NE,55,0.0,1.0,84,0.00,,,0.56,,2013-07-01 05:02:00,
2013-07-01 01:11:00,66.0,62.0,29.86,West,279,0.0,1.0,86,0.00,,,0.56,,2013-07-01 05:11:00,
2013-07-01 01:22:00,66.0,62.0,29.86,NNW,334,0.0,1.0,87,0.00,,,0.56,,2013-07-01 05:22:00,
2013-07-01 01:33:00,66.0,62.0,29.86,NNW,334,0.0,1.0,87,0.00,,,0.56,,2013-07-01 05:33:00,
2013-07-01 01:42:00,65.0,61.0,29.86,NNW,334,0.0,1.0,88,0.00,,,0.56,,2013-07-01 05:42:00,
2013-07-01 01:52:00,65.0,62.0,29.87,NW,317,0.0,1.0,89,0.00,,,0.56,,2013-07-01 05:52:00,
2013-07-01 02:02:00,65.0,62.0,29.87,NW,317,0.0,1.0,89,0.00,,,0.56,,2013-07-01 06:02:00,
2013-07-01 02:12:00,65.0,62.0,29.86,NW,317,0.0,0.0,90,0.00,,,0.56,,2013-07-01 06:12:00,
2013-07-01 02:24:00,65.0,62.0,29.86,NW,317,0.0,2.0,90,0.00,,,0.56,,2013-07-01 06:24:00,
2013-07-01 02:33:00,65.0,62.0,29.86,NW,317,0.0,2.0,90,0.00,,,0.56,,2013-07-01 06:33:00,
2013-07-01 02:43:00,64.0,61.0,29.87,NW,317,0.0,1.0,90,0.00,,,0.56,,2013-07-01 06:43:00,
2013-07-01 02:53:00,64.0,61.0,29.86,NW,317,0.0,2.0,90,0.00,,,0.56,,2013-07-01 06:53:00,
2013-07-01 03:01:00,64.0,61.0,29.86,NW,317,0.0,2.0,90,0.00,,,0.56,,2013-07-01 07:01:00,
2013-07-01 03:11:00,64.0,61.0,29.86,North,355,0.0,2.0,90,0.00,,,0.56,,2013-07-01 07:11:00,
2013-07-01 03:22:00,64.0,61.0,29.86,East,86,0.0,3.0,89,0.00,,,0.56,,2013-07-01 07:22:00,
2013-07-01 03:33:00,64.0,61.0,29.86,East,86,0.0,3.0,89,0.00,,,0.56,,2013-07-01 07:33:00,
2013-07-01 03:43:00,64.0,61.0,29.86,ENE,63,0.0,2.0,89,0.00,,,0.56,,2013-07-01 07:43:00,
2013-07-01 03:53:00,64.0,61.0,29.85,North,355,0.0,3.0,89,0.00,,,0.56,,2013-07-01 07:53:00,
2013-07-01 04:01:00,64.0,61.0,29.85,North,355,0.0,3.0,89,0.00,,,0.56,,2013-07-01 08:01:00,
2013-07-01 04:12:00,63.0,59.0,29.85,North,355,0.0,5.0,88,0.00,,,0.56,,2013-07-01 08:12:00,
2013-07-01 04:22:00,63.0,59.0,29.85,West,269,0.0,3.0,87,0.00,,,0.56,,2013-07-01 08:22:00,
2013-07-01 04:33:00,63.0,59.0,29.85,West,269,0.0,3.0,87,0.00,,,0.56,,2013-07-01 08:33:00,
2013-07-01 04:43:00,63.0,59.0,29.86,NE,43,0.0,2.0,86,0.00,,,0.56,,2013-07-01 08:43:00,
2013-07-01 04:52:00,62.0,58.0,29.86,NNE,17,0.0,2.0,86,0.00,,,0.56,,2013-07-01 08:52:00,
2013-07-01 05:02:00,62.0,58.0,29.86,NNE,17,0.0,2.0,86,0.00,,,0.56,,2013-07-01 09:02:00,
2013-07-01 05:12:00,62.0,58.0,29.87,NNE,19,0.0,3.0,86,0.00,,,0.56,,2013-07-01 09:12:00,
2013-07-01 05:22:00,62.0,57.0,29.87,NNE,33,0.0,2.0,85,0.00,,,0.56,,2013-07-01 09:22:00,
2013-07-01 05:34:00,62.0,57.0,29.87,NNE,33,0.0,2.0,85,0.00,,,0.56,,2013-07-01 09:34:00,
2013-07-01 05:43:00,62.0,57.0,29.88,NE,56,0.0,3.0,84,0.00,,,0.56,,2013-07-01 09:43:00,
2013-07-01 05:53:00,62.0,57.0,29.88,ENE,77,0.0,3.0,84,0.00,,,0.56,,2013-07-01 09:53:00,
2013-07-01 06:03:00,62.0,57.0,29.88,ENE,77,0.0,3.0,84,0.00,,,0.56,,2013-07-01 10:03:00,
2013-07-01 06:11:00,62.0,57.0,29.88,ENE,73,0.0,6.0,83,0.00,,,0.56,,2013-07-01 10:11:00,
2013-07-01 06:22:00,61.0,56.0,29.88,NE,34,0.0,4.0,83,0.00,,,0.56,,2013-07-01 10:22:00,
2013-07-01 06:33:00,61.0,56.0,29.88,NE,34,0.0,4.0,83,0.00,,,0.56,,2013-07-01 10:33:00,
2013-07-01 06:43:00,61.0,55.0,29.88,ENE,61,0.0,3.0,82,0.00,,,0.56,,2013-07-01 10:43:00,
2013-07-01 06:52:00,61.0,55.0,29.88,NE,44,0.0,5.0,81,0.00,,,0.56,,2013-07-01 10:52:00,
2013-07-01 07:02:00,61.0,55.0,29.88,NE,44,0.0,5.0,81,0.00,,,0.56,,2013-07-01 11:02:00,
2013-07-01 07:11:00,61.0,55.0,29.88,East,90,0.0,6.0,82,0.00,,,0.56,,2013-07-01 11:11:00,
2013-07-01 07:22:00,61.0,55.0,29.88,WNW,284,0.0,5.0,82,0.00,,,0.56,,2013-07-01 11:22:00,
2013-07-01 07:33:00,61.0,55.0,29.88,WNW,284,0.0,5.0,82,0.00,,,0.56,,2013-07-01 11:33:00,
2013-07-01 07:43:00,61.0,55.0,29.89,ENE,62,0.0,4.0,82,0.00,,,0.56,,2013-07-01 11:43:00,
2013-07-01 07:52:00,61.0,56.0,29.89,NE,49,0.0,2.0,83,0.00,,,0.55,,2013-07-01 11:52:00,
2013-07-01 08:01:00,61.0,56.0,29.89,NE,49,0.0,2.0,83,0.00,,,0.55,,2013-07-01 12:01:00,
2013-07-01 08:11:00,61.0,56.0,29.89,NE,34,0.0,4.0,83,0.00,,,0.55,,2013-07-01 12:11:00,
2013-07-01 08:33:00,61.0,56.0,29.89,East,98,0.0,4.0,83,0.00,,,0.55,,2013-07-01 12:33:00,
2013-07-01 08:43:00,62.0,57.0,29.89,East,92,1.0,4.0,83,0.00,,,0.55,,2013-07-01 12:43:00,
2013-07-01 09:02:00,62.0,57.0,29.89,NE,55,0.0,7.0,83,0.00,,,0.38,,2013-07-01 13:02:00,
2013-07-01 09:12:00,63.0,57.0,29.89,NNE,32,0.0,5.0,82,0.00,,,0.38,,2013-07-01 13:12:00,
2013-07-01 09:23:00,63.0,57.0,29.89,NNE,32,0.0,5.0,82,0.00,,,0.38,,2013-07-01 13:23:00,
2013-07-01 09:33:00,63.0,58.0,29.89,ENE,69,0.0,3.0,83,0.00,,,0.38,,2013-07-01 13:33:00,
2013-07-01 09:53:00,63.0,58.0,29.90,NNE,29,1.0,4.0,83,0.00,,,0.38,,2013-07-01 13:53:00,
2013-07-01 10:01:00,64.0,59.0,29.89,NW,318,1.0,4.0,83,0.00,,,0.38,,2013-07-01 14:01:00,
2013-07-01 10:22:00,64.0,58.0,29.89,ENE,59,1.0,5.0,82,0.00,,,0.38,,2013-07-01 14:22:00,
2013-07-01 10:34:00,65.0,59.0,29.90,North,5,1.0,4.0,81,0.00,,,0.38,,2013-07-01 14:34:00,
2013-07-01 10:43:00,65.0,59.0,29.90,ENE,67,1.0,7.0,80,0.00,,,0.38,,2013-07-01 14:43:00,
2013-07-01 10:52:00,65.0,59.0,29.90,ENE,67,1.0,7.0,80,0.00,,,0.38,,2013-07-01 14:52:00,
2013-07-01 11:23:00,65.0,58.0,29.90,ENE,69,2.0,6.0,78,0.00,,,0.38,,2013-07-01 15:23:00,
2013-07-01 11:34:00,65.0,58.0,29.91,North,10,1.0,8.0,78,0.00,,,0.38,,2013-07-01 15:34:00,
2013-07-01 11:43:00,65.0,58.0,29.92,East,90,1.0,11.0,78,0.00,,,0.38,,2013-07-01 15:43:00,
2013-07-01 11:52:00,65.0,58.0,29.92,East,90,1.0,11.0,78,0.00,,,0.38,,2013-07-01 15:52:00,
2013-07-01 12:22:00,65.0,59.0,29.93,ENE,71,1.0,8.0,80,0.00,,,0.05,,2013-07-01 16:22:00,
2013-07-01 12:33:00,65.0,59.0,29.94,ENE,77,0.0,3.0,81,0.00,,,0.05,,2013-07-01 16:33:00,
2013-07-01 12:53:00,64.0,59.0,29.95,ENE,74,0.0,1.0,84,0.01,,,0.06,,2013-07-01 16:53:00,
2013-07-01 13:23:00,62.0,59.0,29.96,ENE,74,0.0,1.0,91,0.11,,,0.12,,2013-07-01 17:23:00,
2013-07-01 13:34:00,62.0,60.0,29.95,ENE,74,0.0,1.0,93,0.25,,,0.26,,2013-07-01 17:34:00,
2013-07-01 13:53:00,62.0,60.0,29.94,ENE,74,0.0,1.0,94,0.27,,,0.28,,2013-07-01 17:53:00,
2013-07-01 14:11:00,61.0,59.0,29.94,ENE,74,0.0,2.0,94,0.33,,,0.38,,2013-07-01 18:11:00,
2013-07-01 14:22:00,61.0,60.0,29.93,NE,34,0.0,6.0,95,0.37,,,0.51,,2013-07-01 18:22:00,
2013-07-01 14:33:00,62.0,61.0,29.93,NE,55,0.0,3.0,95,0.30,,,0.56,,2013-07-01 18:33:00,
2013-07-01 14:43:00,62.0,61.0,29.93,NE,55,0.0,3.0,95,0.30,,,0.56,,2013-07-01 18:43:00,
2013-07-01 14:53:00,62.0,61.0,29.93,NNE,13,0.0,5.0,95,0.28,,,0.57,,2013-07-01 18:53:00,
2013-07-01 15:02:00,63.0,62.0,29.92,WNW,299,1.0,4.0,95,0.19,,,0.59,,2013-07-01 19:02:00,
2013-07-01 15:22:00,63.0,61.0,29.92,East,82,1.0,9.0,93,0.09,,,0.59,,2013-07-01 19:22:00,
2013-07-01 15:33:00,64.0,62.0,29.92,ENE,61,2.0,6.0,93,0.04,,,0.59,,2013-07-01 19:33:00,
2013-07-01 15:44:00,64.0,62.0,29.92,ENE,74,0.0,6.0,93,0.02,,,0.59,,2013-07-01 19:44:00,
2013-07-01 15:52:00,64.0,62.0,29.92,ENE,74,0.0,6.0,93,0.02,,,0.59,,2013-07-01 19:52:00,
2013-07-01 16:11:00,65.0,64.0,29.92,NE,40,1.0,5.0,95,0.00,,,0.59,,2013-07-01 20:11:00,
2013-07-01 16:22:00,67.0,63.0,29.92,ENE,68,5.0,12.0,88,0.00,,,0.59,,2013-07-01 20:22:00,
2013-07-01 16:43:00,69.0,64.0,29.92,East,101,4.0,13.0,83,0.00,,,0.59,,2013-07-01 20:43:00,
2013-07-01 16:52:00,69.0,64.0,29.92,East,101,4.0,13.0,83,0.00,,,0.59,,2013-07-01 20:52:00,
2013-07-01 17:24:00,68.0,63.0,29.93,NE,37,5.0,15.0,83,0.00,,,0.59,,2013-07-01 21:24:00,
2013-07-01 17:34:00,68.0,63.0,29.93,NE,41,4.0,14.0,84,0.00,,,0.59,,2013-07-01 21:34:00,
2013-07-01 17:43:00,67.0,62.0,29.93,ENE,67,4.0,11.0,84,0.00,,,0.59,,2013-07-01 21:43:00,
2013-07-01 17:53:00,67.0,62.0,29.93,ENE,67,4.0,11.0,84,0.00,,,0.59,,2013-07-01 21:53:00,
2013-07-01 18:01:00,67.0,62.0,29.93,NNE,28,1.0,10.0,83,0.00,,,0.59,,2013-07-01 22:01:00,
2013-07-01 18:11:00,67.0,62.0,29.93,NNE,28,1.0,10.0,83,0.00,,,0.59,,2013-07-01 22:11:00,
2013-07-01 18:24:00,67.0,62.0,29.94,ENE,58,2.0,14.0,83,0.00,,,0.59,,2013-07-01 22:24:00,
2013-07-01 18:43:00,67.0,61.0,29.93,ENE,77,5.0,12.0,82,0.00,,,0.59,,2013-07-01 22:43:00,
2013-07-01 18:53:00,67.0,61.0,29.93,ENE,77,5.0,12.0,82,0.00,,,0.59,,2013-07-01 22:53:00,
2013-07-01 19:01:00,67.0,61.0,29.94,ESE,115,3.0,11.0,82,0.00,,,0.59,,2013-07-01 23:01:00,
2013-07-01 19:11:00,67.0,61.0,29.94,ENE,77,5.0,14.0,82,0.00,,,0.59,,2013-07-01 23:11:00,
2013-07-01 19:22:00,67.0,61.0,29.94,ENE,77,5.0,14.0,82,0.00,,,0.59,,2013-07-01 23:22:00,
2013-07-01 19:33:00,67.0,61.0,29.94,ENE,74,2.0,13.0,81,0.00,,,0.59,,2013-07-01 23:33:00,
2013-07-01 19:44:00,66.0,60.0,29.94,NNE,23,6.0,14.0,82,0.00,,,0.59,,2013-07-01 23:44:00,
2013-07-01 19:53:00,66.0,60.0,29.94,NNE,23,6.0,14.0,82,0.00,,,0.59,,2013-07-01 23:53:00,
2013-07-01 20:01:00,66.0,60.0,29.95,NE,41,4.0,9.0,82,0.00,,,0.59,,2013-07-02 00:01:00,
2013-07-01 20:12:00,66.0,60.0,29.96,NW,311,3.0,13.0,81,0.00,,,0.59,,2013-07-02 00:12:00,
2013-07-01 20:22:00,66.0,60.0,29.96,NW,311,3.0,13.0,81,0.00,,,0.59,,2013-07-02 00:22:00,
2013-07-01 20:34:00,65.0,59.0,29.97,NE,46,4.0,9.0,82,0.00,,,0.59,,2013-07-02 00:34:00,
2013-07-01 20:53:00,65.0,59.0,29.98,ENE,57,2.0,9.0,82,0.00,,,0.59,,2013-07-02 00:53:00,
2013-07-01 21:01:00,65.0,59.0,29.97,NE,42,4.0,9.0,81,0.00,,,0.59,,2013-07-02 01:01:00,
2013-07-01 21:11:00,65.0,59.0,29.97,NE,42,4.0,9.0,81,0.00,,,0.59,,2013-07-02 01:11:00,
2013-07-01 21:22:00,65.0,59.0,29.97,NE,52,1.0,7.0,82,0.00,,,0.59,,2013-07-02 01:22:00,
2013-07-01 21:33:00,64.0,58.0,29.96,ENE,57,1.0,12.0,82,0.00,,,0.59,,2013-07-02 01:33:00,
2013-07-01 21:53:00,64.0,59.0,29.96,NE,44,0.0,7.0,83,0.00,,,0.59,,2013-07-02 01:53:00,
2013-07-01 22:12:00,64.0,58.0,29.97,NE,49,2.0,9.0,82,0.00,,,0.59,,2013-07-02 02:12:00,
2013-07-01 22:22:00,64.0,59.0,29.96,ENE,61,1.0,8.0,83,0.00,,,0.59,,2013-07-02 02:22:00,
2013-07-01 22:34:00,64.0,59.0,29.96,NE,46,1.0,6.0,83,0.00,,,0.59,,2013-07-02 02:34:00,
2013-07-01 22:43:00,64.0,59.0,29.96,NE,46,1.0,6.0,83,0.00,,,0.59,,2013-07-02 02:43:00,
2013-07-01 22:53:00,64.0,59.0,29.96,NE,55,3.0,8.0,84,0.00,,,0.59,,2013-07-02 02:53:00,
2013-07-01 23:01:00,64.0,59.0,29.96,NE,55,3.0,8.0,84,0.00,,,0.59,,2013-07-02 03:01:00,
2013-07-01 23:12:00,63.0,58.0,29.96,North,5,1.0,6.0,85,0.00,,,0.59,,2013-07-02 03:12:00,
2013-07-01 23:32:00,63.0,59.0,29.98,NE,55,1.0,7.0,86,0.00,,,0.59,,2013-07-02 03:32:00,
2013-07-01 23:43:00,63.0,59.0,29.98,NW,319,1.0,7.0,86,0.00,,,0.59,,2013-07-02 03:43:00,